This is the latest recevied weather packets stored in our database for station/object OK1FET-17. If no packets are shown the sender has not sent any weather packets the latest 10 day(s).
| Time | Temp. | Humidity | Pressure | Rain* | Wind** | Luminosity | Snow |
|---|---|---|---|---|---|---|---|
| 1788420270 | 23.33° C | 72% | 1026.2 hPa | - | - | - | - |
| 1788420269 | 23.33° C | 72% | 1026.2 hPa | - | - | - | - |
| 1788419662 | 22.78° C | 80% | 1026.2 hPa | - | - | - | - |
| 1788419054 | 22.78° C | 79% | 1026.2 hPa | - | - | - | - |
| 1788418446 | 22.22° C | 77% | 1026.1 hPa | - | - | - | - |
| 1788417839 | 22.22° C | 79% | 1026.1 hPa | - | - | - | - |
| 1788417232 | 21.67° C | 82% | 1026 hPa | - | - | - | - |
| 1788416625 | 21.11° C | 82% | 1026 hPa | - | - | - | - |
| 1788416019 | 20.56° C | 80% | 1026 hPa | - | - | - | - |
| 1788415413 | 20° C | 82% | 1025.9 hPa | - | - | - | - |
| 1788414807 | 19.44° C | 81% | 1025.7 hPa | - | - | - | - |
| 1788414203 | 17.22° C | 82% | 1025.7 hPa | - | - | - | - |
| 1788413598 | 15° C | 86% | 1025.7 hPa | - | - | - | - |
| 1788412994 | 14.44° C | 87% | 1025.8 hPa | - | - | - | - |
| 1788412390 | 14.44° C | 89% | 1025.7 hPa | - | - | - | - |
| 1788411786 | 14.44° C | 90% | 1025.6 hPa | - | - | - | - |
| 1788411182 | 12.78° C | 92% | 1025.5 hPa | - | - | - | - |
| 1788410578 | 12.78° C | 92% | 1025.5 hPa | - | - | - | - |
| 1788409974 | 12.78° C | 92% | 1025.5 hPa | - | - | - | - |
| 1788409370 | 12.78° C | 91% | 1025.6 hPa | - | - | - | - |
| 1788408766 | 13.33° C | 90% | 1025.4 hPa | - | - | - | - |
| 1788408162 | 13.33° C | 89% | 1025.4 hPa | - | - | - | - |
| 1788407558 | 13.33° C | 89% | 1025.3 hPa | - | - | - | - |
| 1788406955 | 13.89° C | 88% | 1025.3 hPa | - | - | - | - |
| 1788406351 | 13.33° C | 89% | 1025.3 hPa | - | - | - | - |
* Rain since midnight (hover to see other rain measurements)
** Current wind speed in m/s (hover to see current wind gust speed)